map of JUL home
JUL - Airport
Location
City:  Juliaca, Puno, Perú
Name:Inca Manco Cápac International Airport
ICAO:SPJL
IATA:JUL

Details
Type:Airport (Aerodrome, Airfield)
Use:Public/Civil, International (customs port of entry)
Latitude:15°28'01"S (-15.466855)
Longitude:70°09'28"W (-70.157882)
Elevation:12552 ft (3826 m)
Variation:6.81°W (WMM2015v2 magnetic declination)
-0.20° annual change
Runways:1
Longest:13780 × 148 ft (4200 × 45 m), paved

Time
Time Zone:UTC-5
Local Time:

Weather
METAR:SPJL 041400Z 32002KT 9999 SCT012 11/05 Q1038 RMK PP000
TAF:SPJL 041115Z 0412/0512 VRB03KT 9999 SCT010 BKN080 TX17/0419Z TN05/0510Z
FM041700 09008KT 9999 SCT020
FM050000 33005KT 9999 BKN015 SCT080

Related Locations
Nearby:
Farthest:VCL: 12373 mi / 19913 km
Chu Lai [Intl], VN

Find:

   beyond  
but within

Other Information
Maps:
NOTAMs:
Links:
Sources:

  
  • flag of Perú
  • flag of Puno
  

Sectional Chart

Flight Planning
at skyvector.com

Satellite Image

Google Maps Satellite view

 

Copyright © 2004-2019 Karl L. Swartz. All rights reserved.
The Great Circle Mapper name and logo are trademarks of the Great Circle Mapper.
All other trademarks mentioned herein belong to their respective owners.
Please see credits for attibutions and further copyright information.

  Follow gcmap on Facebook Follow gcmap on Twitter GCmap on LinkedIn

hCard Microformat

Geo Microformat